Tuscaloosa, AL

11:27 AM CDT on May 27, 2017 (GMT -0500)
Tuscaloosa Municipal

Weather History for KTCL - September, 2012

Change the Weather History Date:

Sunday, September 30, 2012

  Actual Average Record
Temperature  
Mean Temperature 70 °F 70 °F  
Max Temperature 72 °F 82 °F 96 °F (1954)
Min Temperature 68 °F 58 °F 37 °F (1967)
Degree Days  
Heating Degree Days 0 1  
Month to date heating degree days 1 5  
Since 1 July heating degree days 1 7  
Cooling Degree Days 5    
Growing Degree Days 20 (Base 50)    
Moisture  
Dew Point 69 °F    
Average Humidity 95    
Maximum Humidity 100    
Minimum Humidity 90    
Precipitation  
Precipitation 1.37 in 0.13 in 2.50 in (1973)
Month to date precipitation 7.30 3.52  
Year to date precipitation 36.99 39.39  
Sea Level Pressure  
Sea Level Pressure 29.76 in    
Wind  
Wind Speed 5 mph (East)    
Max Wind Speed 12 mph    
Max Gust Speed 17 mph    
Visibility 5 miles    
Events Rain    
T = Trace of Precipitation, MM = Missing Value Source: NWS Daily Summary

Daily Weather History Graph

Daily Weather History Graph

Search for Another Location

Airport or City:

Trip Planner

Search our weather history database for the weather conditions in past years. The results will help you decide how hot, cold, wet, or windy it might be!

Date:

Astronomy

Sep. 30, 2012 Rise Set
Actual Time 6:44 AM CDT 6:35 PM CDT
Civil Twilight 6:19 AM CDT 7:00 PM CDT
Nautical Twilight 5:50 AM CDT 7:28 PM CDT
Astronomical Twilight 5:22 AM CDT 7:57 PM CDT
Moon 6:44 PM CDT (9/30) 7:10 AM CDT (9/30)
Length of Visible Light 12h 40m
Length of Day
11h 51m
Full, 100% of the Moon is Illuminated
Sep 30
Full
Oct 8
Last Quarter
Oct 15
New
Oct 21
First Quarter
Oct 29
Full

Hourly Weather History & Observations

Time (CDT) Temp. Dew Point Humidity Pressure Visibility Wind Dir Wind Speed Gust Speed Precip Events Conditions
12:02 AM 71.6 °F 69.8 °F 94% 29.91 in 9.0 mi SW 4.6 mph - N/A   Overcast
12:43 AM 71.6 °F 69.8 °F 94% 29.91 in 2.5 mi SE 3.5 mph - 0.05 in Rain Rain
12:53 AM 71.1 °F 68.0 °F 90% 29.90 in 3.0 mi ESE 4.6 mph - 0.06 in Rain Light Rain
1:53 AM 70.0 °F 68.0 °F 93% 29.89 in 4.0 mi NNE 5.8 mph - 0.04 in Rain Light Rain
2:53 AM 70.0 °F 68.0 °F 93% 29.88 in 4.0 mi Calm Calm - 0.01 in   Overcast
3:53 AM 70.0 °F 68.0 °F 93% 29.87 in 5.0 mi Calm Calm - 0.00 in Rain Light Rain
4:53 AM 70.0 °F 69.1 °F 97% 29.86 in 5.0 mi Calm Calm - 0.00 in Rain Light Rain
5:53 AM 69.1 °F 66.9 °F 93% 29.85 in 6.0 mi NE 3.5 mph - 0.00 in Rain Light Rain
6:53 AM 69.1 °F 66.9 °F 93% 29.85 in 5.0 mi ENE 3.5 mph - 0.00 in Rain Light Rain
7:53 AM 68.0 °F 66.0 °F 93% 29.86 in 4.0 mi ENE 3.5 mph - 0.00 in   Overcast
8:53 AM 68.0 °F 66.0 °F 93% 29.86 in 5.0 mi NE 4.6 mph - 0.00 in   Overcast
9:51 AM 69.8 °F 66.2 °F 88% 29.86 in 5.0 mi NE 8.1 mph - N/A   Overcast
9:53 AM 70.0 °F 66.0 °F 87% 29.86 in 5.0 mi NE 8.1 mph - N/A   Overcast
10:53 AM 70.0 °F 66.0 °F 87% 29.84 in 5.0 mi NE 6.9 mph - 0.00 in Rain Light Rain
11:10 AM 69.8 °F 66.2 °F 88% 29.84 in 2.5 mi NE 4.6 mph - 0.01 in Rain Light Rain
11:30 AM 69.8 °F 66.2 °F 88% 29.84 in 1.8 mi NE 6.9 mph - 0.03 in Rain Light Rain
11:51 AM 69.8 °F 68.0 °F 94% 29.83 in 2.5 mi ENE 5.8 mph - 0.04 in Rain Light Rain
11:53 AM 70.0 °F 68.0 °F 93% 29.83 in 3.0 mi ENE 5.8 mph - 0.04 in Rain Light Rain
12:02 PM 69.8 °F 68.0 °F 94% 29.83 in 2.0 mi ENE 3.5 mph - 0.01 in Rain Light Rain
12:08 PM 69.8 °F 68.0 °F 94% 29.83 in 1.2 mi ENE 3.5 mph - 0.03 in Rain Rain
12:41 PM 69.8 °F 69.8 °F 100% 29.81 in 2.0 mi ENE 5.8 mph - 0.11 in Rain Light Rain
12:53 PM 70.0 °F 69.1 °F 97% 29.80 in 2.5 mi ENE 8.1 mph - 0.12 in Rain Light Rain
1:06 PM 69.8 °F 69.8 °F 100% 29.79 in 2.0 mi ENE 5.8 mph - 0.02 in Rain Light Rain
1:11 PM 69.8 °F 69.8 °F 100% 29.79 in 1.8 mi ENE 5.8 mph - 0.03 in Rain Rain
1:25 PM 69.8 °F 69.8 °F 100% 29.79 in 1.5 mi East 6.9 mph - 0.08 in Rain Rain
1:53 PM 70.0 °F 69.1 °F 97% 29.77 in 1.2 mi ENE 4.6 mph - 0.27 in Rain Heavy Rain
2:53 PM 70.0 °F 68.0 °F 93% 29.74 in 1.8 mi ENE 6.9 mph - 0.48 in Rain Rain
3:08 PM 69.8 °F 69.8 °F 100% 29.74 in 2.5 mi Calm Calm - 0.05 in Rain Rain
3:24 PM 69.8 °F 69.8 °F 100% 29.73 in 3.0 mi Variable 4.6 mph - 0.09 in Rain Rain
3:31 PM 69.8 °F 69.8 °F 100% 29.74 in 4.0 mi East 6.9 mph - 0.10 in Rain Rain
3:44 PM 69.8 °F 68.0 °F 94% 29.73 in 5.0 mi East 5.8 mph - 0.11 in Rain Light Rain
3:53 PM 70.0 °F 69.1 °F 97% 29.73 in 4.0 mi East 5.8 mph - 0.12 in Rain Light Rain
4:23 PM 71.6 °F 69.8 °F 94% 29.72 in 2.5 mi East 4.6 mph - 0.05 in Rain Light Rain
4:29 PM 71.6 °F 69.8 °F 94% 29.72 in 3.0 mi East 5.8 mph - 0.06 in Rain Rain
4:32 PM 71.6 °F 69.8 °F 94% 29.71 in 2.5 mi East 5.8 mph - 0.07 in Rain Rain
4:46 PM 69.8 °F 69.8 °F 100% 29.71 in 3.0 mi East 5.8 mph - 0.09 in Rain Rain
4:53 PM 70.0 °F 69.1 °F 97% 29.70 in 4.0 mi East 5.8 mph - 0.09 in Rain Light Rain
5:10 PM 69.8 °F 69.8 °F 100% 29.70 in 5.0 mi ENE 6.9 mph - 0.01 in Rain Light Rain
5:51 PM 71.6 °F 69.8 °F 94% 29.70 in 9.0 mi East 3.5 mph - 0.01 in Rain Light Rain
5:53 PM 71.1 °F 69.1 °F 93% 29.69 in 9.0 mi East 3.5 mph - 0.01 in Rain Light Rain
6:03 PM 71.6 °F 69.8 °F 94% 29.70 in 10.0 mi East 4.6 mph - 0.00 in Rain Light Rain
6:53 PM 71.1 °F 69.1 °F 93% 29.69 in 8.0 mi ESE 6.9 mph - 0.02 in Rain Light Rain
7:00 PM 71.6 °F 69.8 °F 94% 29.68 in 8.0 mi East 8.1 mph - 0.00 in Rain Light Rain
7:28 PM 71.6 °F 69.8 °F 94% 29.68 in 10.0 mi East 4.6 mph - 0.00 in   Overcast
7:53 PM 71.1 °F 70.0 °F 96% 29.67 in 10.0 mi East 5.8 mph - 0.00 in Rain Light Rain
8:14 PM 71.6 °F 69.8 °F 94% 29.68 in 10.0 mi East 4.6 mph - 0.02 in Rain Light Rain
8:53 PM 71.1 °F 70.0 °F 96% 29.67 in 6.0 mi East 5.8 mph - 0.03 in Rain Light Rain
9:35 PM 71.6 °F 69.8 °F 94% 29.67 in 10.0 mi Variable 5.8 mph - 0.02 in   Overcast
9:53 PM 72.0 °F 69.1 °F 91% 29.67 in 10.0 mi ESE 6.9 mph - 0.02 in   Overcast
10:06 PM 71.6 °F 69.8 °F 94% 29.67 in 10.0 mi ESE 4.6 mph - N/A   Overcast
10:31 PM 71.6 °F 69.8 °F 94% 29.66 in 10.0 mi ESE 5.8 mph - 0.00 in Rain Light Rain
10:49 PM 71.6 °F 69.8 °F 94% 29.65 in 2.5 mi East 3.5 mph - 0.09 in Rain Light Rain
10:53 PM 72.0 °F 70.0 °F 93% 29.65 in 4.0 mi East 4.6 mph - 0.09 in Rain Light Rain
11:46 PM 71.6 °F 69.8 °F 94% 29.63 in 4.0 mi ESE 9.2 mph 16.1 mph 0.04 in Rain Light Rain
11:53 PM 72.0 °F 70.0 °F 93% 29.62 in 10.0 mi SE 6.9 mph 16.1 mph 0.04 in   Overcast